Meadville, PA

8:16 AM EST on February 21, 2017 (GMT -0500)
Port Meadville

Weather History for KGKJ - May, 2013

Change the Weather History Date:

Wednesday, May 8, 2013

  Actual Average Record
Temperature  
Mean Temperature 60 °F -  
Max Temperature 68 °F 65 °F 86 °F (2015)
Min Temperature 55 °F 38 °F 25 °F (1970)
Degree Days  
Heating Degree Days 4    
Growing Degree Days 10 (Base 50)    
Moisture  
Dew Point 53 °F    
Average Humidity 77    
Maximum Humidity 94    
Minimum Humidity 57    
Precipitation  
Precipitation 0.21 in - - ()
Sea Level Pressure  
Sea Level Pressure 29.98 in    
Wind  
Wind Speed 4 mph (NE)    
Max Wind Speed 8 mph    
Max Gust Speed 16 mph    
Visibility 9 miles    
Events Rain    
Averages and records for this station are not official NWS values.
T = Trace of Precipitation, MM = Missing Value Source: NWS Daily Summary

Daily Weather History Graph

Daily Weather History Graph

Search for Another Location

Airport or City:

Trip Planner

Search our weather history database for the weather conditions in past years. The results will help you decide how hot, cold, wet, or windy it might be!

Date:

Astronomy

May. 08, 2013 Rise Set
Actual Time 6:08 AM EDT 8:26 PM EDT
Civil Twilight 5:37 AM EDT 8:57 PM EDT
Nautical Twilight 4:59 AM EDT 9:36 PM EDT
Astronomical Twilight 4:17 AM EDT 10:18 PM EDT
Moon 5:16 AM EDT (5/8) 7:22 PM EDT (5/8)
Length of Visible Light 15h 20m
Length of Day
14h 18m
Waning Crescent, 2% of the Moon is Illuminated
May 8
Waning Crescent
May 9
New
May 18
First Quarter
May 25
Full
May 31
Last Quarter

Hourly Weather History & Observations

Time (EDT) Temp. Dew Point Humidity Pressure Visibility Wind Dir Wind Speed Gust Speed Precip Events Conditions
12:53 AM 62.1 °F 48.9 °F 62% 30.00 in 10.0 mi Calm Calm - N/A   Scattered Clouds
1:53 AM 60.1 °F 48.9 °F 67% 29.99 in 10.0 mi East 4.6 mph - N/A   Partly Cloudy
2:53 AM 62.1 °F 48.9 °F 62% 29.97 in 10.0 mi East 4.6 mph - N/A   Overcast
3:53 AM 61.0 °F 48.9 °F 64% 29.97 in 10.0 mi East 5.8 mph - N/A   Mostly Cloudy
4:53 AM 57.0 °F 50.0 °F 77% 29.97 in 10.0 mi NE 4.6 mph - N/A   Partly Cloudy
5:53 AM 55.9 °F 50.0 °F 80% 29.97 in 10.0 mi NE 4.6 mph - N/A   Mostly Cloudy
6:53 AM 57.9 °F 50.0 °F 75% 29.99 in 10.0 mi ENE 3.5 mph - N/A   Mostly Cloudy
7:25 AM 57.2 °F 51.8 °F 82% 30.01 in 10.0 mi NE 6.9 mph - 0.00 in Rain Light Rain
7:53 AM 57.9 °F 52.0 °F 81% 30.00 in 10.0 mi East 6.9 mph - 0.00 in Rain Light Rain
8:53 AM 59.0 °F 53.1 °F 81% 30.01 in 10.0 mi ENE 4.6 mph - 0.00 in   Overcast
9:53 AM 62.1 °F 53.1 °F 72% 30.00 in 10.0 mi Variable 4.6 mph - N/A   Overcast
10:53 AM 64.9 °F 54.0 °F 68% 30.00 in 10.0 mi Variable 4.6 mph - 0.00 in   Mostly Cloudy
11:24 AM 66.2 °F 53.6 °F 64% 30.01 in 10.0 mi SSE 5.8 mph - N/A   Overcast
11:53 AM 66.9 °F 53.1 °F 61% 29.99 in 10.0 mi Variable 5.8 mph - N/A   Overcast
12:53 PM 66.9 °F 51.1 °F 57% 29.98 in 10.0 mi Calm Calm - N/A   Overcast
1:53 PM 64.0 °F 53.1 °F 67% 29.97 in 10.0 mi North 5.8 mph - 0.00 in Rain Light Rain
2:45 PM 60.8 °F 53.6 °F 77% 29.98 in 2.5 mi SW 6.9 mph 16.1 mph 0.04 in Rain Heavy Rain
2:53 PM 59.0 °F 54.0 °F 83% 29.98 in 2.0 mi Variable 3.5 mph - 0.08 in Rain Heavy Rain
3:06 PM 57.2 °F 55.4 °F 94% 30.00 in 3.0 mi NNW 6.9 mph - 0.05 in Rain Rain
3:08 PM 57.2 °F 55.4 °F 94% 29.99 in 2.5 mi NNW 6.9 mph - 0.06 in Rain Heavy Rain
3:26 PM 57.2 °F 53.6 °F 88% 29.98 in 4.0 mi North 6.9 mph - 0.13 in Rain Rain
3:53 PM 59.0 °F 55.9 °F 90% 29.97 in 10.0 mi NNE 6.9 mph - 0.13 in   Scattered Clouds
4:53 PM 60.1 °F 55.0 °F 83% 29.96 in 10.0 mi NNE 8.1 mph - N/A   Scattered Clouds
5:53 PM 61.0 °F 55.0 °F 81% 29.96 in 10.0 mi NE 5.8 mph - N/A   Partly Cloudy
6:53 PM 62.1 °F 52.0 °F 70% 29.95 in 10.0 mi Calm Calm - N/A   Overcast
7:53 PM 59.0 °F 54.0 °F 83% 29.95 in 10.0 mi Calm Calm - N/A   Mostly Cloudy
8:53 PM 57.0 °F 54.0 °F 89% 29.96 in 10.0 mi NNW 3.5 mph - N/A   Overcast
9:53 PM 55.9 °F 53.1 °F 90% 29.97 in 10.0 mi Calm Calm - N/A   Overcast
10:53 PM 55.0 °F 52.0 °F 89% 29.97 in 10.0 mi Calm Calm - N/A   Overcast
11:53 PM 55.9 °F 52.0 °F 87% 29.95 in 10.0 mi Calm Calm - N/A   Overcast